テンペル第2彗星

10P/Tempel 2 (1999)

English version
Home page
Updated on July 21, 2013

---------------------------------------------------------------------

・ プロフィール

・ 写真集

・ 軌道要素

Epoch 1999 Sept. 19.0 TT = JDT 2451440.5
T 1999 Sept. 8.42103 TT                                 MPC
q   1.4816767            (2000.0)            P               Q
n   0.18013577     Peri.  195.02264     +0.68001376     +0.71003003
a   3.1050558      Node   118.21184     -0.64948914     +0.69906672
e   0.5228180      Incl.   11.97669     -0.34021338     +0.08463497
P   5.47
From 2862 observations 1972 Feb. 10-2012 Jan. 22, mean residual 0".7.
     Nongravitational parameters A1 = +0.03, A2 = +0.0007.

・ 星図

・ 光度変化

        H = 13.6  G = 0.15              [    ,-160]  (              〜1999年 4月 1日)
        m1 =  3.4 + 5 logΔ + 40 log r  [-160,   0]  (1999年 4月 1日〜1999年 9月 8日)
        m1 =  7.2 + 5 logΔ + 18 log r  [   0, 400]  (1999年 9月 8日〜2000年10月12日)
        H = 13.6  G = 0.15              [ 400,    ]  (2000年10月12日〜              )

---------------------------------------------------------------------

軌道要素はM.P.E.C. 2012-J16に掲載されたものです。
星図は StellaNavigator Ver.2.0 for Windows (アストロアーツ編著 / アスキー出版局刊) で作成したものです。
光度グラフはComet for Windowsで作成したものです。

---------------------------------------------------------------------

Copyright(C) Seiichi Yoshida (comet@aerith.net). All rights reserved.